| time (UTC) | temp C | wind direction | speed KPH | gust KPH | rain 1hr cm | rain 24hr cm | rain mn cm | humidity % | barometer mb |
| 20260503184517 | 26 | 324 | 1.6 | 4.8 | 0.00 | 0.00 | 0.00 | 46 | 1011.0 |
| 20260503183518 | 26 | 345 | 1.6 | 4.8 | 0.00 | 0.00 | 0.00 | 45 | 1011.1 |
| 20260503182516 | 26 | 326 | 1.6 | 8.0 | 0.00 | 0.00 | 0.00 | 47 | 1011.2 |
| 20260503181519 | 25 | 343 | 3.2 | 4.8 | 0.00 | 0.05 | 0.00 | 48 | 1011.3 |
| 20260503180538 | 25 | 332 | 1.6 | 8.0 | 0.00 | 0.05 | 0.00 | 49 | 1011.4 |
| 20260503175518 | 24 | 340 | 3.2 | 6.4 | 0.00 | 0.05 | 0.00 | 51 | 1011.4 |
| 20260503174517 | 23 | 335 | 3.2 | 6.4 | 0.00 | 0.05 | 0.00 | 52 | 1011.5 |
| 20260503173538 | 23 | 332 | 1.6 | 4.8 | 0.00 | 0.05 | 0.00 | 53 | 1011.6 |
| 20260503172518 | 22 | 323 | 1.6 | 4.8 | 0.00 | 0.05 | 0.00 | 56 | 1011.6 |
| 20260503171517 | 22 | 347 | 1.6 | 4.8 | 0.00 | 0.05 | 0.00 | 59 | 1011.6 |
| 20260503170520 | 21 | 343 | 1.6 | 4.8 | 0.00 | 0.05 | 0.00 | 62 | 1011.7 |
| 20260503150519 | 15 | 160 | 0.0 | 4.8 | 0.00 | 0.05 | 0.00 | 90 | 1012.0 |
| 20260503130517 | 11 | 228 | 0.0 | 1.6 | 0.00 | 0.05 | 0.00 | 99 | 1011.6 |
| 20260503110518 | 12 | 222 | 0.0 | 3.2 | 0.00 | 0.05 | 0.00 | 100 | 1011.9 |
| 20260503081519 | 14 | 222 | 0.0 | 1.6 | 0.00 | 0.08 | 0.00 | 92 | 1012.4 |
| 20260503080519 | 15 | 185 | 0.0 | 1.6 | 0.00 | 0.08 | 0.00 | 91 | 1012.4 |
| 20260503072540 | 15 | 219 | 1.6 | 6.4 | 0.00 | 0.08 | 0.00 | 91 | 1012.4 |
| 20260503071518 | 15 | 217 | 1.6 | 4.8 | 0.00 | 0.08 | 0.00 | 90 | 1012.5 |
| 20260503070517 | 15 | 223 | 1.6 | 4.8 | 0.00 | 0.08 | 0.00 | 89 | 1012.5 |
| 20260503054518 | 15 | 215 | 1.6 | 4.8 | 0.00 | 0.08 | 0.08 | 88 | 1012.7 |
| 20260503053539 | 15 | 206 | 0.0 | 4.8 | 0.00 | 0.08 | 0.08 | 87 | 1012.6 |
| 20260503052518 | 15 | 216 | 3.2 | 4.8 | 0.00 | 0.08 | 0.08 | 87 | 1012.6 |
| 20260503051518 | 16 | 181 | 0.0 | 1.6 | 0.00 | 0.08 | 0.08 | 86 | 1012.6 |
| 20260503050520 | 16 | 146 | 0.0 | 3.2 | 0.00 | 0.08 | 0.08 | 85 | 1012.4 |
| 20260503045519 | 16 | 224 | 0.0 | 3.2 | 0.00 | 0.08 | 0.08 | 84 | 1012.4 |
| 20260503044519 | 16 | 137 | 0.0 | 1.6 | 0.00 | 0.08 | 0.08 | 84 | 1012.4 |
| 20260503043520 | 16 | 186 | 0.0 | 1.6 | 0.00 | 0.08 | 0.08 | 84 | 1012.3 |
| 20260503042519 | 16 | 192 | 0.0 | 1.6 | 0.00 | 0.08 | 0.08 | 83 | 1012.2 |
| 20260503041517 | 16 | 198 | 0.0 | 3.2 | 0.00 | 0.08 | 0.08 | 83 | 1012.3 |
| 20260503040517 | 16 | 214 | 1.6 | 4.8 | 0.00 | 0.08 | 0.08 | 83 | 1012.2 |
| 20260503035518 | 17 | 213 | 0.0 | 3.2 | 0.00 | 0.08 | 0.08 | 81 | 1012.3 |
| 20260503034518 | 17 | 154 | 0.0 | 1.6 | 0.00 | 0.08 | 0.08 | 80 | 1012.3 |
| 20260503033518 | 17 | 183 | 0.0 | 1.6 | 0.00 | 0.08 | 0.08 | 79 | 1012.1 |
| 20260503032517 | 17 | 216 | 0.0 | 1.6 | 0.00 | 0.08 | 0.08 | 79 | 1012.0 |
| 20260503031517 | 17 | 220 | 0.0 | 3.2 | 0.00 | 0.08 | 0.08 | 78 | 1011.9 |
| 20260503030518 | 17 | 10 | 0.0 | 3.2 | 0.00 | 0.08 | 0.08 | 77 | 1011.8 |
| 20260503025538 | 17 | 238 | 0.0 | 3.2 | 0.00 | 0.08 | 0.08 | 77 | 1011.8 |
| 20260503024517 | 17 | 231 | 0.0 | 3.2 | 0.00 | 0.08 | 0.08 | 77 | 1012.0 |
| 20260503023518 | 17 | 226 | 0.0 | 3.2 | 0.00 | 0.08 | 0.08 | 76 | 1012.0 |
| 20260503022519 | 18 | 152 | 3.2 | 12.9 | 0.00 | 0.08 | 0.08 | 75 | 1012.4 |
| 20260503021519 | 18 | 162 | 4.8 | 11.3 | 0.00 | 0.08 | 0.08 | 75 | 1012.5 |
| 20260503020519 | 18 | 158 | 4.8 | 11.3 | 0.00 | 0.08 | 0.08 | 75 | 1012.6 |
| 20260503015520 | 18 | 124 | 6.4 | 14.5 | 0.00 | 0.08 | 0.08 | 76 | 1012.6 |
| 20260503014516 | 18 | 214 | 3.2 | 4.8 | 0.00 | 0.08 | 0.08 | 76 | 1012.0 |
| 20260503013517 | 19 | 197 | 1.6 | 4.8 | 0.00 | 0.08 | 0.08 | 75 | 1011.8 |
| 20260503012516 | 20 | 173 | 3.2 | 6.4 | 0.00 | 0.08 | 0.08 | 73 | 1011.7 |
| 20260503011518 | 20 | 130 | 3.2 | 9.7 | 0.00 | 0.08 | 0.08 | 68 | 1011.7 |
| 20260503010518 | 20 | 223 | 1.6 | 6.4 | 0.00 | 0.08 | 0.08 | 67 | 1011.7 |
| 20260503005518 | 20 | 237 | 0.0 | 3.2 | 0.00 | 0.08 | 0.08 | 67 | 1011.6 |
| 20260503004518 | 20 | 229 | 0.0 | 3.2 | 0.00 | 0.08 | 0.08 | 66 | 1011.6 |
| 20260503003518 | 20 | 327 | 0.0 | 1.6 | 0.00 | 0.08 | 0.08 | 66 | 1011.5 |
| 20260503002537 | 20 | 216 | 0.0 | 1.6 | 0.00 | 0.08 | 0.08 | 66 | 1011.5 |
| 20260503001517 | 20 | 211 | 0.0 | 3.2 | 0.00 | 0.08 | 0.08 | 66 | 1011.5 |
| 20260503000518 | 21 | 318 | 0.0 | 1.6 | 0.00 | 0.08 | 0.08 | 65 | 1011.6 |
| 20260502235518 | 21 | 230 | 0.0 | 3.2 | 0.00 | 0.08 | 0.08 | 64 | 1011.7 |
| 20260502234519 | 21 | 351 | 0.0 | 1.6 | 0.00 | 0.08 | 0.08 | 63 | 1011.8 |
| 20260502233518 | 21 | 348 | 0.0 | 3.2 | 0.00 | 0.08 | 0.08 | 65 | 1012.0 |
| 20260502232518 | 21 | 226 | 1.6 | 6.4 | 0.00 | 0.08 | 0.08 | 64 | 1012.1 |
| 20260502231519 | 21 | 314 | 0.0 | 3.2 | 0.00 | 0.08 | 0.08 | 65 | 1012.3 |
| 20260502230519 | 21 | 338 | 1.6 | 3.2 | 0.00 | 0.08 | 0.08 | 65 | 1012.4 |
| 20260502225519 | 20 | 250 | 0.0 | 3.2 | 0.00 | 0.08 | 0.08 | 64 | 1012.5 |
| 20260502224520 | 21 | 345 | 1.6 | 6.4 | 0.00 | 0.08 | 0.08 | 63 | 1012.7 |
| 20260502223520 | 20 | 239 | 0.0 | 3.2 | 0.00 | 0.08 | 0.08 | 64 | 1012.8 |
| 20260502222517 | 20 | 319 | 1.6 | 4.8 | 0.00 | 0.08 | 0.08 | 66 | 1013.0 |
| 20260502221517 | 20 | 341 | 1.6 | 4.8 | 0.00 | 0.08 | 0.08 | 65 | 1013.1 |
| 20260502220518 | 19 | 237 | 0.0 | 4.8 | 0.00 | 0.08 | 0.08 | 67 | 1013.2 |
| 20260502215517 | 19 | 325 | 1.6 | 6.4 | 0.00 | 0.08 | 0.08 | 67 | 1013.3 |
| 20260502214519 | 18 | 290 | 1.6 | 4.8 | 0.00 | 0.08 | 0.08 | 68 | 1013.6 |
| 20260502213518 | 18 | 87 | 3.2 | 11.3 | 0.00 | 0.08 | 0.08 | 70 | 1013.7 |
| 20260502212600 | 17 | 231 | 1.6 | 4.8 | 0.00 | 0.08 | 0.08 | 72 | 1013.7 |
| 20260502211519 | 17 | 341 | 1.6 | 4.8 | 0.00 | 0.08 | 0.08 | 72 | 1013.9 |
| 20260502210517 | 17 | 328 | 1.6 | 4.8 | 0.00 | 0.08 | 0.08 | 71 | 1014.1 |
| 20260502205519 | 17 | 43 | 0.0 | 3.2 | 0.00 | 0.08 | 0.08 | 72 | 1014.2 |
| 20260502204538 | 17 | 353 | 1.6 | 4.8 | 0.00 | 0.08 | 0.08 | 73 | 1014.4 |
| 20260502203559 | 16 | 162 | 1.6 | 6.4 | 0.00 | 0.08 | 0.08 | 74 | 1014.6 |
| 20260502202538 | 16 | 13 | 1.6 | 4.8 | 0.00 | 0.08 | 0.08 | 75 | 1014.7 |
| 20260502201518 | 16 | 204 | 1.6 | 4.8 | 0.00 | 0.08 | 0.08 | 76 | 1014.9 |
| 20260502200538 | 15 | 116 | 1.6 | 6.4 | 0.00 | 0.08 | 0.08 | 79 | 1015.0 |
| 20260502195517 | 15 | 134 | 0.0 | 4.8 | 0.00 | 0.08 | 0.08 | 79 | 1015.1 |
| 20260502194537 | 15 | 243 | 1.6 | 6.4 | 0.00 | 0.08 | 0.08 | 81 | 1015.1 |
| 20260502193537 | 14 | 143 | 0.0 | 3.2 | 0.00 | 0.08 | 0.08 | 82 | 1015.2 |
| 20260502192516 | 13 | 199 | 1.6 | 6.4 | 0.00 | 0.08 | 0.08 | 85 | 1015.3 |
| 20260502191518 | 13 | 333 | 1.6 | 9.7 | 0.05 | 0.08 | 0.08 | 86 | 1015.3 |
| 20260502190517 | 13 | 342 | 0.0 | 3.2 | 0.05 | 0.08 | 0.08 | 87 | 1015.7 |
| 20260502185518 | 12 | 147 | 0.0 | 3.2 | 0.05 | 0.08 | 0.08 | 89 | 1015.9 |